Terminal Aerodrome Forecast
Issued by NWS

Home | Current Version | Previous Version | Text Only | Print | Product List | Glossary On
Versions: 1 2 3 4 5 6 7 8 9 10 11 12 13 14 15 16 17 18 19 20 21 22 23 24 25 26 27 28 29 30 31 32 33
000
FTUS46 KEKA 180415 AAB
TAFACV
TAF AMD
KACV 180415Z 1804/1824 34003KT 6SM BR SCT250
     FM180630 31005KT 6SM BR BKN005
     FM180700 VRB05KT 1SM BR OVC004
     FM180900 VRB03KT 1/2SM -DZ FG OVC003
     FM181800 27008KT P6SM SCT002=

USA.gov is the U.S. government's official web portal to all federal, state and local government web resources and services.